La Ceiba, Honduras

7:04 AM CST on December 12, 2017 (GMT -0600)
Goloson International

Weather History for MHLC - June, 2013

Change the Weather History Date:

Saturday, June 15, 2013

  Actual Average Record
Temperature  
Mean Temperature 78 °F -  
Max Temperature 88 °F 86 °F 91 °F (1997)
Min Temperature 68 °F 72 °F 68 °F (2013)
Cooling Degree Days 13    
Growing Degree Days 28 (Base 50)    
Moisture  
Dew Point 74 °F    
Average Humidity 77    
Maximum Humidity 94    
Minimum Humidity 57    
Precipitation  
Precipitation 0.12 in 0.22 in - ()
Sea Level Pressure  
Sea Level Pressure 29.92 in    
Wind  
Wind Speed 6 mph ()    
Max Wind Speed 17 mph    
Max Gust Speed 29 mph    
Visibility 6.5 miles    
Events Rain , Thunderstorm    
Averages and records for this station are not official NWS values.
T = Trace of Precipitation, MM = Missing Value Source: Averaged Metar Reports

Daily Weather History Graph

Daily Weather History Graph

Search for Another Location

Airport or City:

Trip Planner

Search our weather history database for the weather conditions in past years. The results will help you decide how hot, cold, wet, or windy it might be!

Date:

Astronomy

Jun. 15, 2013 Rise Set
Actual Time 5:16 AM CST 6:19 PM CST
Civil Twilight 4:52 AM CST 6:43 PM CST
Nautical Twilight 4:24 AM CST 7:11 PM CST
Astronomical Twilight 3:55 AM CST 7:40 PM CST
Moon 10:57 AM CST (6/15) 11:22 PM CST (6/15)
Length of Visible Light 13h 51m
Length of Day
13h 03m
Waxing Crescent, 40% of the Moon is Illuminated
Jun 15
Waxing Crescent
Jun 16
First Quarter
Jun 23
Full
Jun 29
Last Quarter
Jul 8
New

Hourly Weather History & Observations

Time (CST) Temp. Heat Index Dew Point Humidity Pressure Visibility Wind Dir Wind Speed Gust Speed Precip Events Conditions
7:00 AM 78.8 °F - 73.4 °F 83% 29.92 in 6.2 mi Calm Calm - N/A   Mostly Cloudy
8:00 AM 84.2 °F 90.9 °F 73.4 °F 70% 29.92 in 6.2 mi Calm Calm - N/A   Scattered Clouds
9:00 AM 88 °F - 75 °F 58% 29.99 in 11 mi Calm Calm - -   Haze
9:00 AM 87.8 °F 97.6 °F 75.2 °F 66% 29.98 in 6.2 mi Calm Calm - N/A   Mostly Cloudy
10:00 AM 87.8 °F 97.6 °F 75.2 °F 66% 29.98 in 6.2 mi North 5.8 mph - N/A   Mostly Cloudy
11:00 AM 87.8 °F 97.6 °F 75.2 °F 66% 29.95 in 6.2 mi North 9.2 mph - N/A   Scattered Clouds
12:00 PM 88 °F - 75 °F 57% 29.92 in 11 mi ENE 12.7 mph - -   Haze
12:00 PM 87.8 °F 97.6 °F 75.2 °F 66% 29.92 in 6.2 mi ENE 12.7 mph - N/A   Mostly Cloudy
1:00 PM 86.0 °F 96.9 °F 77.0 °F 74% 29.89 in 6.2 mi NE 16.1 mph 28.8 mph N/A   Mostly Cloudy
2:00 PM 80.6 °F 86.2 °F 75.2 °F 84% 29.89 in 6.2 mi ENE 8.1 mph - N/A Thunderstorm Thunderstorm
3:00 PM 85 °F - 76 °F 69% 29.89 in 8 mi NE 17.3 mph - - Thunderstorm Light Thunderstorm
3:00 PM 84.2 °F 94.1 °F 77.0 °F 79% 29.89 in 6.2 mi NE 17.3 mph - N/A   Mostly Cloudy
4:00 PM 82.4 °F 89.5 °F 75.2 °F 79% 29.89 in 6.2 mi NE 16.1 mph - N/A   Mostly Cloudy
5:00 PM 82.4 °F 89.5 °F 75.2 °F 79% - 1.2 mi ENE 15.0 mph - N/A Rain , Thunderstorm Light Thunderstorms and Rain
6:00 PM 78 °F - 73 °F 80% 29.91 in 6 mi NE 8.1 mph - - Thunderstorm Thunderstorm
6:00 PM 78.8 °F - 73.4 °F 83% 29.89 in 6.2 mi NE 8.1 mph - N/A Thunderstorm Thunderstorm
7:00 PM 75.2 °F - 71.6 °F 89% 29.92 in 6.2 mi ENE 4.6 mph - N/A Thunderstorm Thunderstorm
8:00 PM 77.0 °F - 73.4 °F 89% 29.92 in 6.2 mi NE 9.2 mph - N/A   Scattered Clouds
9:00 PM 76 °F - 71 °F 81% 29.95 in 6 mi NE 11.5 mph - -   Partly Cloudy
9:00 PM 75.2 °F - 71.6 °F 89% 29.95 in 6.2 mi NE 11.5 mph - N/A   Mostly Cloudy
10:00 PM 77.0 °F - 73.4 °F 89% 29.92 in 6.2 mi NE 9.2 mph - N/A   Mostly Cloudy
11:00 PM 75.2 °F - 73.4 °F 94% 29.92 in 6.2 mi SSW 6.9 mph - N/A   Mostly Cloudy